www.pogodaiklimat.ru
ПОГОДА в Балтиморе
Время
и дата
21:54 28.11
05:59 29.11
06:53 29.11
07:53 29.11
08:53 29.11
09:54 29.11
10:54 29.11
11:54 29.11
12:53 29.11
13:54 29.11
14:45 29.11
15:55 29.11
16:45 29.11
16:54 29.11
17:55 29.11
18:45 29.11
19:50 29.11
20:55 29.11
21:50 29.11
05:53 30.11
06:54 30.11
07:54 30.11
08:54 30.11
09:40 30.11
09:54 30.11
10:30 30.11
10:54 30.11
11:20 30.11
11:28 30.11
11:54 30.11
12:26 30.11
12:53 30.11
13:53 30.11
14:53 30.11
15:45 30.11
16:54 30.11
17:54 30.11
18:54 30.12
19:54 30.11
20:54 30.11
21:54 30.11
05:54 01.12
06:54 01.12
07:54 01.12
08:54 01.12
09:54 01.12
10:54 01.12
11:54 01.12
Ветер
(напр.,м/с)
Видим. Явления Облачность Т
(С)
Тd
(С)
f
(%)
Тe
(С)
Тes
(С)
Комфортность P
(гПа)
Po
(гПа)
Тmin
(С)
Tmax
(С)
R
(мм)
R24
(мм)
S
(см)
З 3 16 км 8/8 1500 м +7.0 +2.0 70 +4 +4 1018.3 TN
штиль 0 16 км ясно 0.0 0.0 100 -1 -1 1022.7 TN
штиль 0 16 км 8/8 1410 м +1.0 +1.0 100 0 0 1024.1 TN
штиль 0 16 км 10/10 1410 м +2.0 +1.0 93 +1 +1 1024.8 TN
штиль 0 16 км 10/10 1470 м +5.0 +2.0 81 +4 +4 1025.8 TN
ЮВ 2 16 км 10/10 1470 м +7.0 +3.0 76 +5 +5 1026.1 TN
ЮВ 3 16 км 10/10 1470 м +7.0 +2.0 70 +4 +4 1026.1 TN
ЮВ 3 16 км 10/10 1470 м +9.0 +2.0 61 +7 +7 1025.4 TN
ЮВ 3 16 км 8/8 1470 м +9.0 +2.0 61 +7 +8 1024.8 TN
ЮВ 3 16 км ясно +9.0 +2.0 61 +7 +11 1024.4 TN
ЮВ 2 16 км ясно +9.0 +2.0 61 +8 +11 1023.8 TN
Ю 3 16 км ясно +8.0 +2.0 66 +6 +7 1024.1 TN
В 2 16 км ясно +7.0 +3.0 76 +5 +5 1023.4 TN
Ю 3 16 км ясно +8.0 +2.0 66 +6 +6 1023.4 TN
штиль 0 16 км ясно +6.0 +3.0 81 +5 +5 1023.8 TN
штиль 0 16 км ясно +5.0 +3.0 87 +4 +4 1024.4 TN
В 4 16 км ясно +7.0 +3.0 76 +4 +4 1023.8 TN
В 3 16 км ясно +6.0 +3.0 81 +3 +3 1023.1 TN
ЮВ 4 16 км ясно +6.0 +3.0 81 +2 +2 1023.1 TN
ЮВ 5 16 км 10/10 1020 м +6.0 +7.0 100 +1 +1 1016.6 TN
штиль 0 11 км дождь 8/8 420 m
[Ns]
+8.0 +7.0 93 +7 +7 1016.6 TN
ЮВ 2 6 км дождь 10/10 120 m
[Ns]
+8.0 +8.0 100 +6 +6 1015.6 TN
ЮВ 5 8 км сильный дождь 10/10 180 m
[Ns]
+10.0 +10.0 100 +7 +7 1014.6 TN
ЮВ 5 8 км дождь 10/10 120 m
[Ns]
+10.0 +10.0 100 +7 +7 1013.6 TN
Ю 5
{7}
10 км слабый дождь 10/10 180 m
[Ns]
+11.0 +11.0 100 +8 +8 1013.3 TN
ЮВ 5 8 км слабая морось 10/10 1410 m
[St]
+11.0 +11.0 100 +8 +8 1011.6 TN
ЮВ 4 10 км слабая морось 10/10 1200 m
[St]
+11.0 +10.0 94 +8 +8 1010.2 TN
Ю 4 8 км дождь 10/10 270 m
[Ns]
+11.0 +11.0 100 +8 +8 1010.9 TN
Ю 5 8 км дождь 10/10 270 m
[Ns]
+11.0 +11.0 100 +8 +8 1010.2 TN
Ю 5 10 км слабый дождь 10/10 390 m
[Ns]
+11.0 +11.0 100 +8 +8 1009.5 TN
5 11 км 10/10 270 м +11.0 +11.0 100 +8 +8 1008.9 TN
ЮВ 7
{10}
10 км слабый дождь 10/10 210 m
[Ns]
+11.0 +11.0 100 +7 +7 1008.2 TN
ЮВ 4 11 км 10/10 450 м +11.0 +11.0 100 +8 +8 1007.2 TN
Ю 5 16 км 10/10 390 м +11.0 +11.0 100 +8 +8 1006.5 TN
З 8 10 км слабый дождь 10/10 450 m
[Ns]
+14.0 +12.0 88 +11 +11 1007.9 TN
З 5
{8}
16 км 10/10 1800 м +13.0 +4.0 54 +11 +11 1009.5 TN
З 5
{9}
16 км 10/0 2550 m
[Ac]
+12.0 +3.0 54 +10 +10 1010.9 TN
З 9
{11}
16 км 10/0 2850 m
[Ac]
+9.0 -3.0 43 +5 +5 1012.6 TN
З 10
{14}
16 км ясно +8.0 -5.0 39 +3 +3 1013.9 TN
З 8
{12}
16 км ясно +7.0 -3.0 49 +2 +2 1015.0 TN
З 7
{11}
16 км ясно +6.0 -3.0 52 +1 +1 1016.0 TN
З 6 16 км ясно +2.0 -7.0 51 -3 -3 1024.1 TN
З 5
{7}
16 км ясно +2.0 -7.0 51 -3 -3 1025.4 TN
З 6
{8}
16 км ясно +2.0 -7.0 51 -3 -3 1026.8 TN
З 8
{11}
16 км ясно +3.0 -7.0 48 -3 -3 1028.2 TN
З 8 16 км ясно +4.0 -6.0 48 -2 -1 1028.8 TN
З 8
{11}
16 км ясно +5.0 -6.0 45 0 0 1029.2 TN
З 5
{7}
16 км ясно +6.0 -6.0 42 +2 +5 1029.2 TN
Местоположение метеостанции Martin State Airport: широта 39.3300 долгота -76.4200 высота над уровнем моря 7 м.
В архиве по умолчанию представлена погода в Балтиморе за последние 1-2 суток. Обновление информации о фактической погоде в базе происходит ежечасно! Архивные данные за месяц целиком и за предыдущие месяцы Вы можете получить, выбрав интересующий диапазон дат из раскрывающегося списка и нажав кнопку "Ввод!".
Внимание! Архив погоды МЕТАР в базе сайта по станциям, не включенным в климатический монитор, хранится не более 60 дней. Нет смысла пытаться выбрать более раннюю дату.
*Определитесь, кто Вы:
Внимание! Время в таблицах - местное (без учета летнего времени). Для получения всемирного времени необходимо вычесть поправку, которая равна -5 ч.
Смотрите также архив погоды в соседних городах и на ближайших метеорологических станциях:
Партнеры нашего сайта:      
Пояснения к столбцам:
  • Ветер - указаны скорость ветра в м/с - средняя за 10 мин, порывы в срок и между сроками (в фигурных скобках) и направление, откуда дует ветер: С - северный,
  • СВ - северо-восточный, В - восточный, ЮВ - юго-восточный, Ю - южный, ЮЗ - юго-западный, З - западный, СЗ - северо-западный.
  • Видимость - горизонтальная дальность видимости в метрах или километрах. При видимости от 1 до 10 км при отсутствии осадков обычно наблюдается дымка, при ухудшении видимости до 1 км и менее - туман. В сухую погоду видимость может ухудшаться дымом, пылью или мглою.
  • Явления - указаны атмосферные явления, наблюдавшиеся в срок или в последний час перед сроком; фигурными скобками обозначены явления, наблюдавшиеся между сроками (за 1-3 часа до срока); квадратными скобками обозначены град или гололедные отложения с указанием их диаметра в мм.
  • Облачность - указаны через наклонную черту общая и нижняя облачность в баллах и высота нижней границы облаков в метрах; квадратными скобками обозначены формы облаков: Ci - перистые, Cs - перисто-слоистые, Cc - перисто-кучевые, Ac - высококучевые, As - высокослоистые, Sc - слоисто-кучевые, Ns - слоисто-дождевые, Cu - кучевые, Cb - кучево-дождевые. Подробнее классификацию облаков см. в Атласе облаков (PDF).
  • T - Температура воздуха - температура, измеренная на высоте 2 м над землей.
  • Td - Температура точки росы - температура, при понижении до которой содержащийся в воздухе водяной пар достигнет насыщения.
  • f - Относительная влажность воздуха - влажноcть воздуха, измеренная на высоте 2 м над землей.
  • Te - Эффективная температура - температура, которую ощущает одетый по сезону человек в тени. Характеристика душности погоды. При расчете учитывается влияние влажности воздуха и скорости ветра на теплоощущения человека.
  • Tes - Эффективная температура на солнце - температура, которую ощущает человек, с поправкой на солнечный нагрев. Характеристика знойности погоды. Зависит от высоты солнца над горизонтом, облачности и скорости ветра. Ночью, в пасмурную погоду, а также при ветре 12 м/с и более поправка равна нулю.
  • P - Атмосферное давление - приведенное к уровню моря атмосферное давление.
  • Po - Атмосферное давление - измеренное на уровне метеостанции атмосферное давление.
  • Tmin - Минимальная температура - минимум температуры воздуха на высоте 2 м над землей.
  • Tmax - Максимальная температура - максимум температуры воздуха на высоте 2 м над землей.
  • R - Количество осадков - Количество выпавших осадков за период времени, мм. При наведении курсора мыши на число - период времени, за который выпало указанное количество осадков.
  • R24 - Количество осадков - Количество выпавших осадков за 24 часа, мм.
  • S - Снежный покров - Высота снежного покрова, см. При наведении курсора мыши на число - состояние снежного покрова и степень покрытия местности в баллах.